Location: Alma
(38.7220°N, 88.9090°W)
Time: 00:54:36
(UTC-05:00)

Envisat - Visible Passes

Search period start: 20 October 2019 00:00
Search period end: 30 October 2019 00:00
Orbit: 764 x 766 km, 98.1° (Epoch: 19 October)

Date Brightness Start Highest point End Pass type
(mag) Time Alt. Az. Time Alt. Az. Time Alt. Az.
20 Oct 3.2 19:10:03 10° S 19:15:06 76° WSW 19:20:12 10° NNW visible
21 Oct 3.2 18:33:35 10° SE 18:38:26 47° ENE 18:43:17 10° N visible
21 Oct 5.7 20:14:11 10° SW 20:17:40 18° W 20:21:10 10° NW visible
22 Oct 4.3 19:35:53 10° S 19:40:39 42° W 19:45:28 10° NNW visible
23 Oct 3.0 18:58:46 10° SSE 19:03:50 85° ENE 19:08:57 10° NNW visible
24 Oct 5.3 20:02:17 10° SSW 20:06:18 24° W 20:10:21 10° NW visible
25 Oct 6.3 06:34:15 10° ENE 06:36:53 14° E 06:39:30 10° ESE visible
25 Oct 3.8 19:24:24 10° S 19:29:21 54° W 19:34:21 10° NNW visible
26 Oct 3.0 18:47:35 10° SSE 18:52:36 67° ENE 18:57:38 10° N visible
26 Oct 6.1 20:29:47 10° WSW 20:32:03 13° W 20:34:20 10° WNW visible
27 Oct 4.9 19:50:33 10° SSW 19:54:58 30° W 19:59:25 10° NW visible
28 Oct 6.7 06:24:27 10° ENE 06:25:29 11° E 06:26:32 10° E visible
28 Oct 3.3 19:13:02 10° S 19:18:04 69° WSW 19:23:09 10° NNW visible
29 Oct 3.1 18:36:28 10° SSE 18:41:22 52° ENE 18:46:18 10° N visible
29 Oct 5.8 20:17:28 10° SW 20:20:41 17° W 20:23:54 10° NW visible
